Date String (YYYY-MM-DD hh:mm:ss) UTC,Instrument flags,Ambient pressure (hPa),Sample flow (lpm),Bypass flow (lpm),Sample temperature (°C),Ambient temperature (°C),ASC tube jacket temperature (°C),LED temperature (°C),Box temperature (°C),Sample RH (%),Span deviation,Mass concentration (μg/m³),Mass concentration (μg/m³),Mass concentration (μg/m³)
DateTimeUTC,F1_M11,P_M11,Q1_M11,Q2_M11,T1_M11,T2_M11,T3_M11,T4_M11,T5_M11,U1_M11,ZSPAN_M11,X0_M11,X2_M11,X1_M11
2022-08-02 09:00:00,,0825.7,5.00,0.00,29.4,27.6,00.0,38.2,31.3,22.0,0003.0,0013.05,0009.88,0009.49
2022-08-02 09:01:00,,0825.7,5.01,0.00,29.4,27.8,00.0,38.2,31.3,22.2,0003.2,0013.00,0009.89,0009.51
2022-08-02 09:02:00,,0825.6,4.99,0.00,29.4,28.0,00.0,38.3,31.3,22.0,0003.4,0012.77,0009.91,0009.56
2022-08-02 09:03:00,,0825.5,5.00,0.00,29.4,28.1,00.0,38.3,31.4,22.3,0003.2,0012.76,0009.92,0009.58
2022-08-02 09:04:00,,0825.6,5.01,0.00,29.5,28.2,00.0,38.3,31.4,22.7,0002.9,0012.76,0009.96,0009.61
2022-08-02 09:05:00,,0825.6,5.01,0.00,29.5,28.3,00.0,38.3,31.4,22.7,0002.8,0012.66,0009.97,0009.63
2022-08-02 09:06:00,,0825.6,5.01,0.00,29.5,28.4,00.0,38.3,31.5,23.0,0003.0,0012.66,0009.97,0009.65
2022-08-02 09:07:00,,0825.6,4.98,0.00,29.5,28.5,00.0,38.3,31.5,23.3,0003.0,0013.05,0010.01,0009.68
2022-08-02 09:08:00,,0825.6,5.00,0.00,29.6,28.6,00.0,38.3,31.6,22.8,0002.8,0013.36,0010.07,0009.72
2022-08-02 09:09:00,,0825.6,5.01,0.00,29.6,28.6,00.0,38.3,31.6,22.3,0002.4,0013.77,0010.09,0009.74
2022-08-02 09:10:00,,0825.6,5.00,0.00,29.6,28.7,00.0,38.4,31.6,22.1,0002.3,0013.86,0010.13,0009.78
2022-08-02 09:11:00,,0825.6,4.99,0.00,29.7,28.8,00.0,38.4,31.7,22.1,0002.4,0014.11,0010.17,0009.80
2022-08-02 09:12:00,,0825.6,5.00,0.00,29.7,28.8,00.0,38.4,31.7,22.1,0002.3,0014.20,0010.17,0009.79
2022-08-02 09:13:00,,0825.6,4.99,0.00,29.7,28.2,00.0,38.4,31.5,21.9,0002.0,0014.28,0010.12,0009.72
2022-08-02 09:14:00,,0825.6,4.99,0.00,29.7,27.7,00.0,38.4,31.5,21.7,0002.3,0014.25,0010.05,0009.64
2022-08-02 09:15:00,,0825.6,5.01,0.00,29.6,27.6,00.0,38.4,31.4,21.7,0002.4,0014.16,0009.94,0009.53
2022-08-02 09:16:00,,0825.6,4.99,0.00,29.6,27.7,00.0,38.4,31.4,21.7,0002.4,0014.04,0009.83,0009.42
2022-08-02 09:17:00,,0825.5,4.99,0.00,29.6,27.8,00.0,38.3,31.4,21.7,0002.2,0014.05,0009.73,0009.30
2022-08-02 09:18:00,,0825.6,5.00,0.00,29.6,27.9,00.0,38.3,31.4,21.9,0002.2,0013.67,0009.66,0009.21
2022-08-02 09:19:00,,0825.6,5.00,0.00,29.6,28.0,00.0,38.4,31.4,22.2,0002.2,0013.35,0009.60,0009.15
2022-08-02 09:20:00,,0825.6,5.00,0.00,29.6,28.2,00.0,38.4,31.5,22.2,0002.4,0012.79,0009.54,0009.09
2022-08-02 09:21:00,,0825.5,5.00,0.00,29.6,28.3,00.0,38.4,31.5,22.2,0002.3,0012.82,0009.39,0008.95
2022-08-02 09:22:00,,0825.6,5.01,0.00,29.6,28.4,00.0,38.4,31.5,22.3,0002.0,0012.98,0009.28,0008.85
2022-08-02 09:23:00,,0825.6,5.00,0.00,29.6,28.5,00.0,38.4,31.6,22.5,0001.9,0013.73,0009.22,0008.78
2022-08-02 09:24:00,,0825.6,4.99,0.00,29.7,28.6,00.0,38.4,31.6,22.5,0001.7,0013.76,0009.13,0008.72
2022-08-02 09:25:00,,0825.6,5.00,0.00,29.7,28.6,00.0,38.4,31.7,22.6,0001.5,0013.71,0009.13,0008.72
2022-08-02 09:26:00,,0825.6,5.01,0.00,29.7,28.7,00.0,38.4,31.7,22.9,0001.9,0013.71,0009.16,0008.75
2022-08-02 09:27:00,,0825.6,4.99,0.00,29.7,28.8,00.0,38.5,31.7,23.3,0002.0,0013.83,0009.25,0008.83
2022-08-02 09:28:00,,0825.5,5.01,0.00,29.8,28.5,00.0,38.5,31.7,22.9,0002.1,0013.79,0009.33,0008.92
2022-08-02 09:29:00,,0825.5,5.01,0.00,29.7,27.7,00.0,38.4,31.5,22.4,0002.2,0013.76,0009.35,0008.95
2022-08-02 09:30:00,,0825.5,4.99,0.00,29.7,27.2,00.0,38.4,31.4,22.3,0002.6,0013.68,0009.26,0008.88
2022-08-02 09:31:00,,0825.6,5.01,0.00,29.6,27.1,00.0,38.4,31.3,22.6,0002.5,0013.54,0009.20,0008.83
2022-08-02 09:32:00,,0825.6,4.99,0.00,29.5,27.2,00.0,38.3,31.2,23.0,0002.4,0013.39,0009.28,0008.88
2022-08-02 09:33:00,,0825.6,5.01,0.00,29.5,27.3,00.0,38.3,31.2,23.4,0002.4,0013.02,0009.35,0008.94
2022-08-02 09:34:00,,0825.6,4.99,0.00,29.5,27.5,00.0,38.3,31.3,23.9,0002.3,0012.47,0009.47,0009.00
2022-08-02 09:35:00,,0825.6,5.00,0.00,29.5,27.6,00.0,38.3,31.3,24.1,0002.4,0012.60,0009.60,0009.10
2022-08-02 09:36:00,,0825.6,5.00,0.00,29.5,27.8,00.0,38.3,31.3,24.5,0002.7,0012.63,0009.64,0009.15
2022-08-02 09:37:00,,0825.6,5.01,0.00,29.5,27.9,00.0,38.3,31.4,24.2,0002.4,0012.75,0009.59,0009.12
2022-08-02 09:38:00,,0825.6,4.99,0.00,29.5,28.1,00.0,38.3,31.4,24.6,0002.4,0012.60,0009.49,0009.03
2022-08-02 09:39:00,,0825.7,5.01,0.00,29.5,28.2,00.0,38.3,31.4,24.1,0002.2,0012.58,0009.42,0008.97
2022-08-02 09:40:00,,0825.7,5.01,0.00,29.5,28.3,00.0,38.3,31.4,24.0,0002.1,0013.06,0009.43,0008.94
2022-08-02 09:41:00,,0825.7,5.00,0.00,29.5,28.4,00.0,38.3,31.5,24.1,0001.7,0013.27,0009.54,0009.03
2022-08-02 09:42:00,,0825.7,5.01,0.00,29.6,28.5,00.0,38.3,31.5,24.0,0001.7,0013.41,0009.62,0009.09
2022-08-02 09:43:00,,0825.7,5.00,0.00,29.6,28.6,00.0,38.4,31.6,24.0,0001.9,0013.48,0009.65,0009.11
2022-08-02 09:44:00,,0825.7,4.99,0.00,29.6,28.6,00.0,38.4,31.6,23.9,0001.9,0014.21,0009.69,0009.13
2022-08-02 09:45:00,,0825.7,5.01,0.00,29.7,28.7,00.0,38.4,31.7,23.9,0002.0,0014.42,0009.71,0009.17
2022-08-02 09:46:00,,0825.8,5.00,0.00,29.7,28.8,00.0,38.4,31.7,24.0,0002.3,0014.55,0009.78,0009.23
2022-08-02 09:47:00,,0826.1,4.99,0.00,29.7,28.8,00.0,38.4,31.7,23.9,0002.2,0014.92,0009.89,0009.28
2022-08-02 09:48:00,,0826.0,5.00,0.00,29.8,28.9,00.0,38.5,31.7,23.9,0002.3,0015.23,0010.09,0009.39
2022-08-02 09:49:00,,0826.1,5.00,0.00,29.8,28.4,00.0,38.5,31.7,24.0,0002.5,0015.47,0010.25,0009.52
2022-08-02 09:50:00,,0826.1,5.01,0.00,29.7,27.7,00.0,38.4,31.5,24.1,0002.7,0015.70,0010.43,0009.65
2022-08-02 09:51:00,,0826.2,4.99,0.00,29.7,27.6,00.0,38.4,31.5,24.4,0002.5,0016.12,0010.57,0009.77
2022-08-02 09:52:00,,0826.1,5.00,0.00,29.6,27.6,00.0,38.4,31.4,24.5,0002.5,0016.63,0010.66,0009.85
2022-08-02 09:53:00,,0826.0,5.00,0.00,29.6,27.7,00.0,38.4,31.4,24.5,0002.3,0016.80,0010.76,0009.93
2022-08-02 09:54:00,,0825.8,5.00,0.00,29.6,27.8,00.0,38.4,31.4,24.7,0002.4,0017.36,0010.84,0010.02
2022-08-02 09:55:00,,0825.8,5.00,0.00,29.6,28.0,00.0,38.4,31.4,24.7,0002.6,0017.00,0010.98,0010.09
2022-08-02 09:56:00,,0825.8,5.00,0.00,29.6,28.1,00.0,38.4,31.5,24.7,0002.9,0017.34,0011.02,0010.10
2022-08-02 09:57:00,,0825.8,5.00,0.00,29.6,28.2,00.0,38.4,31.5,24.8,0002.7,0017.01,0011.00,0010.09
2022-08-02 09:58:00,,0825.8,5.01,0.00,29.6,28.3,00.0,38.4,31.5,24.8,0002.5,0016.86,0011.01,0010.12
2022-08-02 09:59:00,,0825.8,5.00,0.00,29.7,28.4,00.0,38.4,31.6,24.8,0002.5,0016.59,0010.98,0010.15
